| time (UTC) | temp C | wind direction | speed KPH | gust KPH | rain 1hr cm | rain 24hr cm | rain mn cm | humidity % | barometer mb |
| 20260507104515 | 6 | 0.0 | 0.0 | 0.00 | 1.09 | 0.03 | 90 | 1007.6 | |
| 20260507104016 | 6 | 0.0 | 0.0 | 0.00 | 1.09 | 0.03 | 90 | 1007.5 | |
| 20260507103516 | 6 | 0.0 | 4.8 | 0.00 | 1.09 | 0.03 | 91 | 1007.4 | |
| 20260507103016 | 6 | 0.0 | 3.2 | 0.00 | 1.09 | 0.03 | 92 | 1007.4 | |
| 20260507102516 | 6 | 248 | 1.6 | 4.8 | 0.00 | 1.09 | 0.03 | 94 | 1007.3 |
| 20260507102016 | 6 | 0.0 | 3.2 | 0.00 | 1.09 | 0.03 | 95 | 1007.4 | |
| 20260507101516 | 6 | 158 | 1.6 | 6.4 | 0.00 | 1.09 | 0.03 | 95 | 1007.4 |
| 20260507101016 | 6 | 158 | 3.2 | 12.9 | 0.00 | 1.09 | 0.03 | 95 | 1007.4 |
| 20260507100516 | 6 | 0.0 | 0.0 | 0.00 | 1.09 | 0.03 | 94 | 1007.3 | |
| 20260507100015 | 6 | 0.0 | 6.4 | 0.00 | 1.09 | 0.03 | 95 | 1007.3 | |
| 20260507095517 | 6 | 180 | 1.6 | 6.4 | 0.00 | 1.09 | 0.03 | 95 | 1007.3 |
| 20260507095015 | 6 | 180 | 3.2 | 8.0 | 0.00 | 1.09 | 0.03 | 95 | 1007.3 |
| 20260507094515 | 6 | 0.0 | 3.2 | 0.00 | 1.09 | 0.03 | 95 | 1007.2 | |
| 20260507094015 | 6 | 0.0 | 1.6 | 0.00 | 1.09 | 0.03 | 95 | 1007.2 | |
| 20260507093515 | 6 | 0.0 | 1.6 | 0.00 | 1.09 | 0.03 | 95 | 1007.4 | |
| 20260507093021 | 6 | 0.0 | 1.6 | 0.00 | 1.09 | 0.03 | 95 | 1007.3 | |
| 20260507092516 | 6 | 203 | 1.6 | 4.8 | 0.00 | 1.09 | 0.03 | 95 | 1007.2 |
| 20260507092016 | 6 | 203 | 1.6 | 6.4 | 0.00 | 1.09 | 0.03 | 95 | 1007.1 |
| 20260507091516 | 6 | 0.0 | 1.6 | 0.00 | 1.09 | 0.03 | 95 | 1007.2 | |
| 20260507091015 | 6 | 0.0 | 1.6 | 0.00 | 1.09 | 0.03 | 95 | 1007.3 | |
| 20260507090535 | 6 | 180 | 1.6 | 8.0 | 0.00 | 1.09 | 0.03 | 95 | 1007.5 |
| 20260507090036 | 6 | 113 | 1.6 | 4.8 | 0.00 | 1.09 | 0.03 | 95 | 1007.5 |
| 20260507085516 | 6 | 135 | 1.6 | 12.9 | 0.00 | 1.09 | 0.03 | 96 | 1007.3 |
| 20260507085016 | 6 | 0.0 | 1.6 | 0.00 | 1.09 | 0.03 | 95 | 1007.2 | |
| 20260507084535 | 6 | 0.0 | 3.2 | 0.00 | 1.09 | 0.03 | 95 | 1007.3 | |
| 20260507084015 | 6 | 0.0 | 1.6 | 0.00 | 1.09 | 0.03 | 95 | 1007.5 | |
| 20260507083515 | 6 | 0.0 | 6.4 | 0.00 | 1.09 | 0.03 | 95 | 1007.4 | |
| 20260507083015 | 6 | 0.0 | 1.6 | 0.00 | 1.09 | 0.03 | 95 | 1007.3 | |
| 20260507082515 | 6 | 0.0 | 3.2 | 0.00 | 1.09 | 0.03 | 95 | 1007.2 | |
| 20260507082015 | 6 | 0.0 | 0.0 | 0.00 | 1.09 | 0.03 | 95 | 1007.3 | |
| 20260507081516 | 6 | 0.0 | 0.0 | 0.00 | 1.09 | 0.03 | 95 | 1007.3 | |
| 20260507081016 | 6 | 0.0 | 0.0 | 0.00 | 1.09 | 0.03 | 95 | 1007.4 | |
| 20260507080515 | 6 | 0.0 | 0.0 | 0.00 | 1.09 | 0.03 | 95 | 1007.5 | |
| 20260507080015 | 6 | 0.0 | 0.0 | 0.00 | 1.09 | 0.03 | 95 | 1007.6 | |
| 20260507075515 | 6 | 0.0 | 0.0 | 0.00 | 1.09 | 0.03 | 95 | 1007.7 | |
| 20260507075016 | 6 | 0.0 | 0.0 | 0.00 | 1.09 | 0.03 | 95 | 1007.7 | |
| 20260507074535 | 6 | 0.0 | 0.0 | 0.00 | 1.09 | 0.03 | 95 | 1007.6 | |
| 20260507074016 | 6 | 0.0 | 0.0 | 0.00 | 1.09 | 0.03 | 95 | 1007.7 | |
| 20260507073515 | 6 | 0.0 | 0.0 | 0.00 | 1.09 | 0.03 | 95 | 1007.6 | |
| 20260507073015 | 6 | 0.0 | 0.0 | 0.00 | 1.12 | 0.03 | 95 | 1007.6 | |
| 20260507072535 | 6 | 0.0 | 0.0 | 0.00 | 1.12 | 0.03 | 95 | 1007.6 | |
| 20260507072015 | 6 | 0.0 | 0.0 | 0.00 | 1.12 | 0.03 | 95 | 1007.6 | |
| 20260507071516 | 6 | 0.0 | 1.6 | 0.00 | 1.12 | 0.03 | 95 | 1007.6 | |
| 20260507071015 | 6 | 0.0 | 0.0 | 0.00 | 1.12 | 0.03 | 95 | 1007.5 | |
| 20260507070515 | 6 | 0.0 | 0.0 | 0.00 | 1.12 | 0.03 | 96 | 1007.4 | |
| 20260507070015 | 6 | 0.0 | 0.0 | 0.00 | 1.12 | 0.03 | 96 | 1007.5 | |
| 20260507065515 | 6 | 0.0 | 0.0 | 0.00 | 1.12 | 0.03 | 96 | 1007.5 | |
| 20260507065016 | 6 | 0.0 | 0.0 | 0.00 | 1.12 | 0.03 | 96 | 1007.4 | |
| 20260507064515 | 6 | 0.0 | 0.0 | 0.00 | 1.12 | 0.03 | 96 | 1007.4 | |
| 20260507064015 | 6 | 0.0 | 0.0 | 0.00 | 1.12 | 0.03 | 96 | 1007.4 | |
| 20260507063535 | 6 | 0.0 | 0.0 | 0.00 | 1.12 | 0.03 | 96 | 1007.2 | |
| 20260507063015 | 6 | 0.0 | 1.6 | 0.00 | 1.12 | 0.03 | 96 | 1007.3 | |
| 20260507062515 | 6 | 180 | 1.6 | 4.8 | 0.00 | 1.12 | 0.03 | 96 | 1007.3 |
| 20260507062015 | 6 | 0.0 | 1.6 | 0.00 | 1.14 | 0.03 | 96 | 1007.3 | |
| 20260507061536 | 6 | 0.0 | 0.0 | 0.00 | 1.14 | 0.03 | 95 | 1007.2 | |
| 20260507061015 | 6 | 0.0 | 0.0 | 0.00 | 1.14 | 0.03 | 95 | 1007.2 | |
| 20260507060515 | 6 | 0.0 | 0.0 | 0.00 | 1.14 | 0.03 | 95 | 1007.3 | |
| 20260507060155 | 6 | 0.0 | 0.0 | 0.00 | 1.14 | 0.03 | 95 | 1007.3 | |
| 20260507055515 | 6 | 0.0 | 0.0 | 0.00 | 1.14 | 0.03 | 95 | 1007.3 | |
| 20260507055015 | 6 | 0.0 | 0.0 | 0.00 | 1.14 | 0.03 | 95 | 1007.4 | |
| 20260507054521 | 6 | 0.0 | 0.0 | 0.00 | 1.14 | 0.03 | 95 | 1007.6 | |
| 20260507054015 | 6 | 0.0 | 1.6 | 0.00 | 1.14 | 0.03 | 95 | 1007.6 | |
| 20260507053535 | 6 | 0.0 | 0.0 | 0.00 | 1.14 | 0.03 | 95 | 1007.4 | |
| 20260507053015 | 6 | 0.0 | 0.0 | 0.00 | 1.14 | 0.03 | 95 | 1007.6 | |
| 20260507052515 | 6 | 0.0 | 0.0 | 0.00 | 1.14 | 0.03 | 95 | 1007.8 | |
| 20260507052015 | 6 | 0.0 | 0.0 | 0.00 | 1.14 | 0.03 | 95 | 1007.9 | |
| 20260507051517 | 6 | 0.0 | 0.0 | 0.00 | 1.14 | 0.03 | 95 | 1007.8 | |
| 20260507051015 | 6 | 0.0 | 0.0 | 0.00 | 1.14 | 0.03 | 95 | 1007.8 | |
| 20260507050515 | 6 | 0.0 | 0.0 | 0.00 | 1.14 | 0.03 | 95 | 1008.0 | |
| 20260507050015 | 6 | 0.0 | 0.0 | 0.03 | 1.14 | 0.03 | 95 | 1008.1 | |
| 20260507045515 | 6 | 0.0 | 0.0 | 0.03 | 1.14 | 0.03 | 95 | 1008.2 | |
| 20260507045015 | 6 | 0.0 | 0.0 | 0.03 | 1.14 | 0.03 | 95 | 1008.1 | |
| 20260507044515 | 6 | 0.0 | 0.0 | 0.03 | 1.14 | 0.03 | 95 | 1008.1 | |
| 20260507044036 | 6 | 0.0 | 0.0 | 0.03 | 1.14 | 0.03 | 95 | 1008.3 | |
| 20260507043515 | 6 | 0.0 | 3.2 | 0.03 | 1.14 | 0.03 | 95 | 1008.3 | |
| 20260507043015 | 6 | 0.0 | 0.0 | 0.03 | 1.14 | 0.03 | 95 | 1008.2 | |
| 20260507042515 | 6 | 0.0 | 0.0 | 0.03 | 1.14 | 0.03 | 95 | 1008.0 | |
| 20260507042015 | 6 | 0.0 | 0.0 | 0.03 | 1.14 | 0.03 | 95 | 1008.0 | |
| 20260507041516 | 6 | 0.0 | 0.0 | 0.03 | 1.14 | 0.03 | 95 | 1008.1 | |
| 20260507041015 | 6 | 0.0 | 0.0 | 0.03 | 1.17 | 0.03 | 95 | 1008.3 | |
| 20260507040516 | 6 | 0.0 | 0.0 | 0.03 | 1.17 | 0.03 | 95 | 1008.4 | |
| 20260507040015 | 6 | 0.0 | 0.0 | 0.00 | 1.14 | 1.14 | 95 | 1008.1 | |
| 20260507035515 | 6 | 0.0 | 1.6 | 0.00 | 1.14 | 1.14 | 95 | 1008.0 | |
| 20260507035015 | 6 | 0.0 | 0.0 | 0.00 | 1.14 | 1.14 | 95 | 1008.0 | |
| 20260507034515 | 6 | 0.0 | 0.0 | 0.00 | 1.14 | 1.14 | 95 | 1008.1 | |
| 20260507034016 | 6 | 0.0 | 0.0 | 0.00 | 1.14 | 1.14 | 95 | 1008.2 | |
| 20260507033516 | 6 | 0.0 | 0.0 | 0.00 | 1.14 | 1.14 | 95 | 1008.1 | |
| 20260507033015 | 6 | 0.0 | 0.0 | 0.00 | 1.14 | 1.14 | 95 | 1008.0 | |
| 20260507032516 | 6 | 0.0 | 0.0 | 0.00 | 1.17 | 1.14 | 95 | 1008.1 | |
| 20260507032021 | 6 | 0.0 | 0.0 | 0.00 | 1.19 | 1.14 | 95 | 1007.9 | |
| 20260507031515 | 6 | 0.0 | 0.0 | 0.00 | 1.19 | 1.14 | 95 | 1007.8 | |
| 20260507031015 | 6 | 0.0 | 0.0 | 0.00 | 1.19 | 1.14 | 95 | 1007.9 | |
| 20260507030515 | 6 | 0.0 | 0.0 | 0.00 | 1.19 | 1.14 | 95 | 1008.2 | |
| 20260507030016 | 6 | 0.0 | 0.0 | 0.00 | 1.19 | 1.14 | 95 | 1008.2 | |
| 20260507025515 | 6 | 0.0 | 0.0 | 0.00 | 1.19 | 1.14 | 95 | 1008.3 | |
| 20260507025015 | 6 | 0.0 | 0.0 | 0.00 | 1.19 | 1.14 | 95 | 1008.2 | |
| 20260507024521 | 6 | 0.0 | 0.0 | 0.00 | 1.19 | 1.14 | 95 | 1007.9 | |
| 20260507024015 | 6 | 0.0 | 0.0 | 0.00 | 1.19 | 1.14 | 95 | 1007.7 | |
| 20260507023516 | 6 | 0.0 | 0.0 | 0.00 | 1.19 | 1.14 | 95 | 1007.8 | |
| 20260507023015 | 6 | 0.0 | 0.0 | 0.00 | 1.19 | 1.14 | 95 | 1008.0 | |
| 20260507022515 | 6 | 0.0 | 0.0 | 0.00 | 1.19 | 1.14 | 95 | 1008.1 | |
| 20260507022035 | 6 | 0.0 | 0.0 | 0.00 | 1.19 | 1.14 | 95 | 1008.3 | |
| 20260507021515 | 6 | 0.0 | 0.0 | 0.00 | 1.19 | 1.14 | 95 | 1008.4 | |
| 20260507021015 | 6 | 0.0 | 0.0 | 0.00 | 1.19 | 1.14 | 95 | 1008.3 | |
| 20260507020515 | 6 | 0.0 | 0.0 | 0.03 | 1.19 | 1.14 | 95 | 1008.3 | |
| 20260507020015 | 6 | 0.0 | 0.0 | 0.03 | 1.19 | 1.14 | 95 | 1008.5 | |
| 20260507015516 | 6 | 0.0 | 0.0 | 0.03 | 1.19 | 1.14 | 95 | 1008.4 | |
| 20260507015015 | 6 | 0.0 | 0.0 | 0.05 | 1.19 | 1.14 | 95 | 1008.4 | |
| 20260507014515 | 6 | 0.0 | 0.0 | 0.05 | 1.19 | 1.14 | 95 | 1008.3 | |
| 20260507014015 | 6 | 0.0 | 0.0 | 0.08 | 1.19 | 1.14 | 95 | 1008.3 | |
| 20260507013515 | 6 | 0.0 | 0.0 | 0.08 | 1.19 | 1.14 | 95 | 1008.2 | |
| 20260507013015 | 6 | 0.0 | 0.0 | 0.08 | 1.19 | 1.14 | 95 | 1008.2 | |
| 20260507012515 | 6 | 0.0 | 0.0 | 0.08 | 1.19 | 1.14 | 95 | 1008.3 | |
| 20260507012021 | 6 | 0.0 | 0.0 | 0.08 | 1.19 | 1.14 | 95 | 1008.3 | |
| 20260507011520 | 6 | 0.0 | 0.0 | 0.08 | 1.19 | 1.14 | 95 | 1008.1 | |
| 20260507011015 | 6 | 0.0 | 0.0 | 0.08 | 1.19 | 1.14 | 95 | 1008.1 | |
| 20260507010520 | 6 | 0.0 | 0.0 | 0.08 | 1.17 | 1.12 | 94 | 1008.2 | |
| 20260507010015 | 6 | 0.0 | 0.0 | 0.08 | 1.17 | 1.12 | 95 | 1008.3 | |
| 20260507005535 | 6 | 0.0 | 0.0 | 0.08 | 1.17 | 1.12 | 94 | 1008.3 | |
| 20260507005015 | 6 | 0.0 | 1.6 | 0.08 | 1.14 | 1.09 | 94 | 1008.4 | |
| 20260507004536 | 6 | 0.0 | 0.0 | 0.08 | 1.14 | 1.09 | 95 | 1008.3 | |
| 20260507004035 | 6 | 0.0 | 0.0 | 0.05 | 1.12 | 1.07 | 95 | 1008.3 | |
| 20260507003515 | 6 | 0.0 | 0.0 | 0.05 | 1.12 | 1.07 | 95 | 1008.1 | |
| 20260507003035 | 6 | 0.0 | 0.0 | 0.05 | 1.12 | 1.07 | 95 | 1008.1 | |
| 20260507002515 | 6 | 0.0 | 0.0 | 0.05 | 1.12 | 1.07 | 95 | 1007.9 | |
| 20260507002015 | 6 | 0.0 | 0.0 | 0.05 | 1.12 | 1.07 | 95 | 1007.9 | |
| 20260507001516 | 6 | 0.0 | 0.0 | 0.05 | 1.12 | 1.07 | 95 | 1007.7 | |
| 20260507001015 | 6 | 0.0 | 3.2 | 0.05 | 1.12 | 1.07 | 95 | 1007.6 | |
| 20260507000515 | 6 | 0.0 | 1.6 | 0.03 | 1.09 | 1.04 | 95 | 1007.6 | |
| 20260507000015 | 6 | 0.0 | 0.0 | 0.03 | 1.09 | 1.04 | 95 | 1007.4 | |
| 20260506235515 | 6 | 0.0 | 0.0 | 0.03 | 1.09 | 1.04 | 95 | 1007.3 | |
| 20260506235016 | 6 | 0.0 | 0.0 | 0.03 | 1.07 | 1.02 | 94 | 1007.3 | |
| 20260506234515 | 6 | 0.0 | 0.0 | 0.03 | 1.07 | 1.02 | 95 | 1007.3 | |
| 20260506234015 | 6 | 0.0 | 0.0 | 0.03 | 1.07 | 1.02 | 95 | 1007.2 | |
| 20260506233515 | 6 | 0.0 | 1.6 | 0.03 | 1.07 | 1.02 | 94 | 1007.1 | |
| 20260506233015 | 6 | 0.0 | 1.6 | 0.03 | 1.07 | 1.02 | 95 | 1007.0 | |
| 20260506232535 | 6 | 0.0 | 0.0 | 0.03 | 1.07 | 1.02 | 95 | 1006.9 | |
| 20260506232016 | 6 | 0.0 | 0.0 | 0.03 | 1.07 | 1.02 | 94 | 1006.9 | |
| 20260506231515 | 6 | 0.0 | 0.0 | 0.03 | 1.07 | 1.02 | 95 | 1006.7 | |
| 20260506231015 | 6 | 0.0 | 0.0 | 0.03 | 1.07 | 1.02 | 95 | 1006.6 | |
| 20260506230515 | 6 | 0.0 | 0.0 | 0.03 | 1.07 | 1.02 | 95 | 1006.9 | |
| 20260506230020 | 6 | 0.0 | 1.6 | 0.03 | 1.07 | 1.02 | 95 | 1006.7 | |
| 20260506225515 | 6 | 0.0 | 0.0 | 0.03 | 1.07 | 1.02 | 95 | 1006.7 | |
| 20260506225015 | 6 | 0.0 | 0.0 | 0.00 | 1.04 | 0.99 | 95 | 1006.8 | |
| 20260506224515 | 6 | 0.0 | 1.6 | 0.00 | 1.04 | 0.99 | 95 | 1006.8 | |
| 20260506224015 | 6 | 0.0 | 1.6 | 0.03 | 1.04 | 0.99 | 95 | 1006.6 | |
| 20260506223515 | 6 | 338 | 1.6 | 4.8 | 0.03 | 1.04 | 0.99 | 95 | 1006.7 |
| 20260506223015 | 6 | 0.0 | 1.6 | 0.03 | 1.04 | 0.99 | 95 | 1006.6 | |
| 20260506222516 | 6 | 0 | 1.6 | 4.8 | 0.03 | 1.04 | 0.99 | 95 | 1006.6 |
| 20260506222015 | 6 | 0.0 | 6.4 | 0.03 | 1.04 | 0.99 | 95 | 1006.5 | |
| 20260506221515 | 6 | 338 | 1.6 | 6.4 | 0.03 | 1.04 | 0.99 | 95 | 1006.4 |
| 20260506221015 | 6 | 338 | 1.6 | 3.2 | 0.03 | 1.04 | 0.99 | 94 | 1006.6 |
| 20260506220535 | 6 | 338 | 3.2 | 4.8 | 0.03 | 1.04 | 0.99 | 95 | 1006.8 |
| 20260506220015 | 6 | 338 | 1.6 | 8.0 | 0.03 | 1.04 | 0.99 | 95 | 1006.7 |
| 20260506215515 | 6 | 0.0 | 1.6 | 0.03 | 1.04 | 0.99 | 95 | 1006.6 | |
| 20260506215015 | 6 | 338 | 4.8 | 6.4 | 0.03 | 1.04 | 0.99 | 95 | 1006.5 |
| 20260506214516 | 6 | 338 | 3.2 | 6.4 | 0.05 | 1.04 | 0.99 | 95 | 1006.5 |
| 20260506214015 | 6 | 338 | 1.6 | 4.8 | 0.03 | 1.02 | 0.97 | 95 | 1006.4 |
| 20260506213515 | 6 | 338 | 1.6 | 4.8 | 0.03 | 1.02 | 0.97 | 95 | 1006.4 |
| 20260506213015 | 6 | 338 | 3.2 | 8.0 | 0.03 | 1.02 | 0.97 | 95 | 1006.5 |
| 20260506212515 | 6 | 338 | 3.2 | 8.0 | 0.03 | 1.02 | 0.97 | 95 | 1006.4 |
| 20260506212018 | 6 | 0 | 1.6 | 4.8 | 0.03 | 1.02 | 0.97 | 95 | 1006.5 |
| 20260506211517 | 6 | 0.0 | 3.2 | 0.03 | 1.02 | 0.97 | 95 | 1006.3 | |
| 20260506211037 | 6 | 0.0 | 1.6 | 0.03 | 1.02 | 0.97 | 95 | 1006.2 | |
| 20260506210517 | 6 | 338 | 1.6 | 4.8 | 0.03 | 1.02 | 0.97 | 94 | 1006.1 |
| 20260506210017 | 6 | 338 | 1.6 | 6.4 | 0.03 | 1.02 | 0.97 | 94 | 1006.1 |
| 20260506205517 | 6 | 338 | 4.8 | 6.4 | 0.03 | 1.02 | 0.97 | 94 | 1006.1 |
| 20260506205017 | 6 | 338 | 3.2 | 8.0 | 0.03 | 1.02 | 0.97 | 94 | 1006.2 |
| 20260506204518 | 6 | 315 | 1.6 | 6.4 | 0.00 | 0.99 | 0.94 | 94 | 1006.2 |
| 20260506204017 | 6 | 0.0 | 1.6 | 0.00 | 0.99 | 0.94 | 94 | 1006.1 | |
| 20260506203517 | 6 | 0.0 | 1.6 | 0.00 | 0.99 | 0.94 | 94 | 1006.1 | |
| 20260506203037 | 6 | 315 | 1.6 | 4.8 | 0.03 | 0.99 | 0.94 | 94 | 1006.1 |
| 20260506202517 | 6 | 0.0 | 3.2 | 0.03 | 0.99 | 0.94 | 94 | 1006.1 | |
| 20260506202036 | 6 | 338 | 1.6 | 6.4 | 0.03 | 0.99 | 0.94 | 94 | 1006.2 |
| 20260506201516 | 6 | 338 | 1.6 | 4.8 | 0.03 | 0.99 | 0.94 | 94 | 1006.2 |
| 20260506201017 | 7 | 338 | 1.6 | 4.8 | 0.05 | 0.99 | 0.94 | 94 | 1006.1 |
| 20260506200516 | 7 | 0.0 | 0.0 | 0.05 | 0.99 | 0.94 | 94 | 1006.1 | |
| 20260506200017 | 7 | 0.0 | 0.0 | 0.05 | 0.99 | 0.94 | 94 | 1006.0 | |
| 20260506195517 | 7 | 338 | 3.2 | 6.4 | 0.05 | 0.99 | 0.94 | 94 | 1006.0 |
| 20260506195017 | 7 | 0.0 | 3.2 | 0.08 | 0.99 | 0.94 | 94 | 1006.1 | |
| 20260506194517 | 7 | 315 | 1.6 | 3.2 | 0.08 | 0.99 | 0.94 | 94 | 1006.1 |
| 20260506194017 | 7 | 0.0 | 1.6 | 0.08 | 0.99 | 0.94 | 94 | 1006.0 | |
| 20260506193517 | 7 | 0.0 | 1.6 | 0.08 | 0.99 | 0.94 | 94 | 1006.0 | |
| 20260506193017 | 7 | 0.0 | 0.0 | 0.05 | 0.97 | 0.91 | 94 | 1006.1 | |
| 20260506192537 | 7 | 0.0 | 1.6 | 0.05 | 0.99 | 0.91 | 94 | 1006.0 | |
| 20260506192017 | 7 | 0.0 | 0.0 | 0.05 | 0.99 | 0.91 | 94 | 1006.1 | |
| 20260506191516 | 7 | 0.0 | 3.2 | 0.05 | 1.07 | 0.91 | 94 | 1006.1 | |
| 20260506191017 | 6 | 0.0 | 0.0 | 0.03 | 1.04 | 0.89 | 94 | 1006.0 | |
| 20260506190517 | 6 | 0.0 | 1.6 | 0.03 | 1.04 | 0.89 | 94 | 1006.1 | |
| 20260506190017 | 6 | 0.0 | 3.2 | 0.03 | 1.04 | 0.89 | 94 | 1006.3 | |
| 20260506185517 | 6 | 338 | 4.8 | 6.4 | 0.03 | 1.04 | 0.89 | 94 | 1006.2 |
| 20260506185037 | 6 | 0.0 | 3.2 | 0.00 | 1.02 | 0.86 | 94 | 1006.2 | |
| 20260506184537 | 6 | 0 | 1.6 | 6.4 | 0.00 | 1.02 | 0.86 | 94 | 1006.3 |
| 20260506184017 | 6 | 338 | 1.6 | 4.8 | 0.00 | 1.02 | 0.86 | 94 | 1006.4 |
| 20260506183516 | 6 | 338 | 3.2 | 6.4 | 0.03 | 1.02 | 0.86 | 94 | 1006.3 |
| 20260506183016 | 6 | 338 | 3.2 | 6.4 | 0.03 | 1.02 | 0.86 | 94 | 1006.3 |
| 20260506182516 | 6 | 338 | 3.2 | 6.4 | 0.03 | 1.02 | 0.86 | 94 | 1006.4 |
| 20260506182017 | 6 | 338 | 3.2 | 6.4 | 0.05 | 1.02 | 0.86 | 94 | 1006.3 |
| 20260506181517 | 6 | 338 | 3.2 | 6.4 | 0.05 | 1.02 | 0.86 | 94 | 1006.3 |
| 20260506181016 | 6 | 315 | 1.6 | 8.0 | 0.08 | 1.02 | 0.86 | 94 | 1006.3 |
| 20260506180517 | 6 | 0.0 | 1.6 | 0.08 | 1.02 | 0.86 | 94 | 1006.4 | |
| 20260506180016 | 6 | 338 | 3.2 | 8.0 | 0.08 | 1.02 | 0.86 | 94 | 1006.5 |
| 20260506175516 | 6 | 338 | 1.6 | 4.8 | 0.10 | 1.02 | 0.86 | 94 | 1006.5 |
| 20260506175016 | 6 | 0.0 | 4.8 | 0.10 | 1.02 | 0.86 | 94 | 1006.5 | |
| 20260506174536 | 6 | 338 | 3.2 | 6.4 | 0.10 | 1.02 | 0.86 | 94 | 1006.6 |
| 20260506174016 | 6 | 338 | 1.6 | 6.4 | 0.10 | 1.02 | 0.86 | 94 | 1006.6 |
| 20260506173517 | 6 | 338 | 1.6 | 4.8 | 0.10 | 0.99 | 0.84 | 94 | 1006.6 |
| 20260506173017 | 6 | 0.0 | 1.6 | 0.10 | 0.99 | 0.84 | 94 | 1006.5 | |
| 20260506172516 | 6 | 338 | 1.6 | 6.4 | 0.10 | 0.99 | 0.84 | 94 | 1006.8 |
| 20260506172056 | 6 | 0.0 | 3.2 | 0.10 | 0.97 | 0.81 | 94 | 1007.0 | |
| 20260506171517 | 6 | 0.0 | 3.2 | 0.10 | 0.97 | 0.81 | 94 | 1007.0 | |
| 20260506171017 | 6 | 338 | 1.6 | 4.8 | 0.10 | 0.94 | 0.79 | 94 | 1006.9 |
| 20260506170516 | 6 | 0.0 | 1.6 | 0.10 | 0.94 | 0.79 | 94 | 1007.0 | |
| 20260506170016 | 6 | 315 | 3.2 | 6.4 | 0.13 | 0.94 | 0.79 | 94 | 1006.9 |
| 20260506165516 | 6 | 315 | 4.8 | 8.0 | 0.13 | 0.91 | 0.76 | 94 | 1006.8 |
| 20260506165016 | 6 | 315 | 3.2 | 6.4 | 0.15 | 0.91 | 0.76 | 94 | 1006.9 |
| 20260506164516 | 6 | 0.0 | 1.6 | 0.15 | 0.91 | 0.76 | 94 | 1006.7 | |
| 20260506164116 | 6 | 338 | 3.2 | 6.4 | 0.18 | 0.91 | 0.76 | 94 | 1006.8 |
| 20260506163516 | 6 | 338 | 1.6 | 3.2 | 0.18 | 0.89 | 0.74 | 94 | 1006.9 |
| 20260506163017 | 6 | 0.0 | 1.6 | 0.20 | 0.89 | 0.74 | 94 | 1006.9 | |
| 20260506162516 | 6 | 338 | 3.2 | 6.4 | 0.23 | 0.89 | 0.74 | 94 | 1007.0 |
| 20260506162016 | 6 | 0.0 | 1.6 | 0.20 | 0.86 | 0.71 | 94 | 1007.0 | |
| 20260506161516 | 6 | 338 | 3.2 | 6.4 | 0.23 | 0.86 | 0.71 | 93 | 1007.1 |
| 20260506161016 | 6 | 0.0 | 3.2 | 0.20 | 0.84 | 0.69 | 93 | 1007.1 | |
| 20260506160517 | 6 | 0.0 | 3.2 | 0.23 | 0.84 | 0.69 | 93 | 1007.2 | |
| 20260506160017 | 6 | 338 | 1.6 | 4.8 | 0.23 | 0.81 | 0.66 | 93 | 1007.4 |
| 20260506155516 | 6 | 0.0 | 3.2 | 0.20 | 0.79 | 0.64 | 93 | 1007.5 | |
| 20260506155036 | 6 | 0.0 | 1.6 | 0.20 | 0.76 | 0.61 | 93 | 1007.5 | |
| 20260506154516 | 6 | 338 | 1.6 | 6.4 | 0.23 | 0.76 | 0.61 | 93 | 1007.5 |
| 20260506154036 | 6 | 0.0 | 1.6 | 0.23 | 0.74 | 0.58 | 93 | 1007.5 | |
| 20260506153517 | 6 | 338 | 1.6 | 4.8 | 0.20 | 0.71 | 0.56 | 93 | 1007.7 |
| 20260506153016 | 6 | 315 | 1.6 | 4.8 | 0.18 | 0.69 | 0.53 | 93 | 1007.7 |
| 20260506152517 | 6 | 338 | 1.6 | 6.4 | 0.18 | 0.66 | 0.51 | 93 | 1007.8 |
| 20260506152036 | 6 | 0.0 | 1.6 | 0.18 | 0.66 | 0.51 | 93 | 1007.5 | |
| 20260506151516 | 6 | 0.0 | 0.0 | 0.15 | 0.64 | 0.48 | 93 | 1007.6 | |
| 20260506151016 | 6 | 338 | 1.6 | 4.8 | 0.15 | 0.64 | 0.48 | 93 | 1007.6 |
| 20260506150516 | 6 | 338 | 1.6 | 6.4 | 0.13 | 0.61 | 0.46 | 93 | 1007.6 |
| 20260506150036 | 6 | 0.0 | 1.6 | 0.13 | 0.58 | 0.43 | 93 | 1007.5 | |
| 20260506145537 | 6 | 0.0 | 3.2 | 0.13 | 0.58 | 0.43 | 93 | 1007.5 | |
| 20260506145016 | 6 | 0.0 | 4.8 | 0.10 | 0.56 | 0.41 | 92 | 1007.5 | |
| 20260506144516 | 6 | 0.0 | 1.6 | 0.08 | 0.53 | 0.38 | 93 | 1007.4 | |
| 20260506144016 | 6 | 0.0 | 1.6 | 0.08 | 0.51 | 0.36 | 92 | 1007.5 | |
| 20260506143516 | 6 | 338 | 1.6 | 4.8 | 0.10 | 0.51 | 0.36 | 92 | 1007.5 |
| 20260506143016 | 6 | 338 | 3.2 | 6.4 | 0.10 | 0.51 | 0.36 | 92 | 1007.5 |
| 20260506142517 | 6 | 0.0 | 0.0 | 0.10 | 0.48 | 0.33 | 92 | 1007.5 | |
| 20260506142016 | 6 | 0.0 | 1.6 | 0.13 | 0.48 | 0.33 | 92 | 1007.4 | |
| 20260506141516 | 6 | 0.0 | 0.0 | 0.13 | 0.48 | 0.33 | 92 | 1007.6 | |
| 20260506141016 | 6 | 355 | 0.0 | 0.0 | 0.13 | 0.48 | 0.33 | 92 | 1007.6 |
| 20260506140516 | 6 | 338 | 1.6 | 4.8 | 0.15 | 0.48 | 0.33 | 92 | 1007.6 |
| 20260506140016 | 7 | 0.0 | 3.2 | 0.13 | 0.46 | 0.30 | 92 | 1007.5 | |
| 20260506135517 | 7 | 338 | 3.2 | 4.8 | 0.15 | 0.46 | 0.30 | 93 | 1007.3 |
| 20260506135016 | 7 | 338 | 1.6 | 4.8 | 0.15 | 0.46 | 0.30 | 92 | 1007.4 |
| 20260506134521 | 7 | 0.0 | 1.6 | 0.18 | 0.46 | 0.30 | 92 | 1007.6 | |
| 20260506134017 | 7 | 0.0 | 1.6 | 0.15 | 0.43 | 0.28 | 92 | 1007.6 | |
| 20260506133516 | 7 | 0.0 | 1.6 | 0.15 | 0.41 | 0.25 | 92 | 1007.4 | |
| 20260506133016 | 7 | 0 | 3.2 | 6.4 | 0.15 | 0.41 | 0.25 | 92 | 1007.4 |
| 20260506132537 | 7 | 0.0 | 1.6 | 0.13 | 0.38 | 0.23 | 91 | 1007.4 | |
| 20260506132016 | 7 | 338 | 1.6 | 9.7 | 0.10 | 0.36 | 0.20 | 91 | 1007.5 |
| 20260506131516 | 7 | 203 | 1.6 | 4.8 | 0.10 | 0.36 | 0.20 | 91 | 1006.9 |
| 20260506131036 | 7 | 0 | 1.6 | 6.4 | 0.13 | 0.36 | 0.20 | 91 | 1007.7 |
| 20260506130516 | 7 | 0.0 | 0.0 | 0.10 | 0.33 | 0.18 | 91 | 1007.0 | |
| 20260506130017 | 7 | 0.0 | 1.6 | 0.10 | 0.33 | 0.18 | 91 | 1007.3 | |
| 20260506125516 | 7 | 338 | 3.2 | 4.8 | 0.08 | 0.30 | 0.15 | 90 | 1007.6 |
| 20260506125016 | 7 | 0.0 | 3.2 | 0.08 | 0.30 | 0.15 | 90 | 1007.6 | |
| 20260506124516 | 7 | 315 | 3.2 | 6.4 | 0.05 | 0.28 | 0.13 | 90 | 1007.5 |
| 20260506124016 | 7 | 338 | 1.6 | 6.4 | 0.05 | 0.28 | 0.13 | 90 | 1007.6 |
| 20260506123516 | 7 | 338 | 3.2 | 6.4 | 0.03 | 0.25 | 0.10 | 89 | 1007.7 |
| 20260506123016 | 7 | 0.0 | 1.6 | 0.03 | 0.25 | 0.10 | 89 | 1007.4 | |
| 20260506122517 | 7 | 315 | 1.6 | 4.8 | 0.03 | 0.25 | 0.10 | 89 | 1007.3 |
| 20260506122016 | 8 | 338 | 3.2 | 6.4 | 0.03 | 0.25 | 0.10 | 89 | 1007.9 |
| 20260506121536 | 8 | 338 | 4.8 | 16.1 | 0.03 | 0.25 | 0.10 | 89 | 1007.5 |
| 20260506121016 | 8 | 338 | 3.2 | 6.4 | 0.00 | 0.23 | 0.08 | 89 | 1007.6 |
| 20260506120516 | 8 | 338 | 3.2 | 6.4 | 0.00 | 0.23 | 0.08 | 88 | 1007.6 |
| 20260506120016 | 8 | 0.0 | 3.2 | 0.00 | 0.23 | 0.08 | 88 | 1007.4 | |
| 20260506115517 | 8 | 338 | 1.6 | 6.4 | 0.00 | 0.23 | 0.08 | 87 | 1007.3 |
| 20260506115016 | 8 | 338 | 1.6 | 6.4 | 0.00 | 0.23 | 0.08 | 87 | 1007.6 |
| 20260506114516 | 8 | 338 | 3.2 | 6.4 | 0.00 | 0.23 | 0.08 | 87 | 1007.4 |
| 20260506114016 | 8 | 338 | 3.2 | 6.4 | 0.00 | 0.23 | 0.08 | 87 | 1007.5 |
| 20260506113516 | 8 | 338 | 3.2 | 8.0 | 0.00 | 0.23 | 0.08 | 87 | 1007.6 |
| 20260506113016 | 8 | 0.0 | 1.6 | 0.00 | 0.23 | 0.08 | 87 | 1007.4 | |
| 20260506112516 | 8 | 0.0 | 4.8 | 0.00 | 0.23 | 0.08 | 87 | 1007.3 | |
| 20260506112016 | 8 | 338 | 1.6 | 4.8 | 0.00 | 0.23 | 0.08 | 87 | 1007.6 |
| 20260506111516 | 8 | 0 | 1.6 | 4.8 | 0.00 | 0.23 | 0.08 | 87 | 1007.2 |
| 20260506111016 | 9 | 0.0 | 1.6 | 0.00 | 0.23 | 0.08 | 87 | 1007.3 | |
| 20260506110516 | 9 | 0.0 | 3.2 | 0.00 | 0.23 | 0.08 | 88 | 1007.6 | |
| 20260506110036 | 9 | 338 | 3.2 | 4.8 | 0.00 | 0.23 | 0.08 | 88 | 1007.6 |
| 20260506105537 | 9 | 338 | 4.8 | 9.7 | 0.00 | 0.23 | 0.08 | 88 | 1007.4 |
| 20260506105016 | 10 | 338 | 1.6 | 4.8 | 0.00 | 0.23 | 0.08 | 88 | 1007.2 |